Location: Strada George Coșbuc
(47.6577°N, 23.5639°E)
Time: 21:41:45
(UTC+03:00)

ISS - Pass Details

Date: 04 October 2017
Orbit: 401 x 408 km, 51.6° (Epoch: 19 October)

Event Time Altitude Azimuth Distance (km) Brightness Sun altitude
Rises 20:54:28 0° 284° (WNW) 2,327 1.7 -20.1°
Reaches altitude 10° 20:56:38 10° 292° (WNW) 1,468 0.2 -20.5°
Enters shadow 20:59:41 40° 360° (N) 620 -2.9 -20.9°
